Mattoon, IL

3:34 PM CDT on May 28, 2017 (GMT -0500)
Coles County Memorial

Weather History for KMTO - October, 2012

Change the Weather History Date:

Friday, October 19, 2012

  Actual Average Record
Temperature  
Mean Temperature 48 °F 54 °F  
Max Temperature 50 °F 64 °F 87 °F (1953)
Min Temperature 45 °F 43 °F 26 °F (1972)
Degree Days  
Heating Degree Days 17 12  
Month to date heating degree days 225 171  
Since 1 July heating degree days 309 242  
Cooling Degree Days 0 0  
Month to date cooling degree days 0 15  
Year to date cooling degree days 1376 1053  
Moisture  
Dew Point 45 °F    
Average Humidity 84    
Maximum Humidity 93    
Minimum Humidity 74    
Precipitation  
Precipitation 0.07 in 0.10 in 1.15 in (1982)
Month to date precipitation 2.68 1.71  
Year to date precipitation 28.04 30.68  
Sea Level Pressure  
Sea Level Pressure 29.61 in    
Wind  
Wind Speed 10 mph (WSW)    
Max Wind Speed 20 mph    
Max Gust Speed 26 mph    
Visibility 9 miles    
Events Rain    
T = Trace of Precipitation, MM = Missing Value Source: NWS Daily Summary

Daily Weather History Graph

Daily Weather History Graph

Search for Another Location

Airport or City:

Trip Planner

Search our weather history database for the weather conditions in past years. The results will help you decide how hot, cold, wet, or windy it might be!

Date:

Astronomy

Oct. 19, 2012 Rise Set
Actual Time 7:07 AM CDT 6:07 PM CDT
Civil Twilight 6:40 AM CDT 6:34 PM CDT
Nautical Twilight 6:09 AM CDT 7:06 PM CDT
Astronomical Twilight 5:38 AM CDT 7:37 PM CDT
Moon 11:49 AM CDT (10/19) 9:46 PM CDT (10/19)
Length of Visible Light 11h 54m
Length of Day
10h 59m
Waxing Crescent, 24% of the Moon is Illuminated
Oct 19
Waxing Crescent
Oct 21
First Quarter
Oct 29
Full
Nov 6
Last Quarter
Nov 13
New

Hourly Weather History & Observations

Time (CDT) Temp. Windchill Dew Point Humidity Pressure Visibility Wind Dir Wind Speed Gust Speed Precip Events Conditions
12:53 AM 48.0 °F - 41.0 °F 77% 29.53 in 10.0 mi SW 4.6 mph - 0.00 in Rain Light Rain
1:53 AM 46.0 °F 41.9 °F 43.0 °F 89% 29.53 in 10.0 mi SW 8.1 mph - 0.02 in Rain Light Rain
2:53 AM 46.0 °F 41.0 °F 44.1 °F 93% 29.51 in 10.0 mi SSW 10.4 mph - 0.02 in Rain Light Rain
3:19 AM 46.4 °F 41.5 °F 44.6 °F 93% 29.50 in 10.0 mi SSW 10.4 mph - 0.00 in   Overcast
3:53 AM 46.9 °F - 44.1 °F 90% 29.50 in 10.0 mi SW 10.4 mph 19.6 mph 0.01 in   Overcast
4:53 AM 46.9 °F - 44.1 °F 90% 29.50 in 10.0 mi SW 9.2 mph 18.4 mph N/A   Overcast
5:53 AM 48.0 °F - 44.1 °F 86% 29.51 in 10.0 mi SW 9.2 mph - N/A   Overcast
6:53 AM 46.9 °F - 45.0 °F 93% 29.52 in 10.0 mi SW 6.9 mph - N/A   Overcast
7:53 AM 46.0 °F 41.9 °F 44.1 °F 93% 29.53 in 10.0 mi WSW 8.1 mph - 0.00 in   Overcast
8:53 AM 46.9 °F - 44.1 °F 90% 29.54 in 10.0 mi WSW 8.1 mph 17.3 mph N/A   Overcast
9:26 AM 44.6 °F 39.7 °F 44.6 °F 100% 29.54 in 2.5 mi West 9.2 mph 19.6 mph 0.00 in   Overcast
9:53 AM 46.0 °F 43.1 °F 45.0 °F 96% 29.55 in 6.0 mi WSW 5.8 mph - 0.00 in   Overcast
10:03 AM 46.4 °F 43.5 °F 44.6 °F 93% 29.55 in 9.0 mi WSW 5.8 mph - N/A   Overcast
10:14 AM 46.4 °F 41.9 °F 44.6 °F 93% 29.55 in 3.0 mi West 9.2 mph 20.7 mph 0.01 in Rain Light Rain
10:31 AM 46.4 °F 41.9 °F 44.6 °F 93% 29.56 in 7.0 mi West 9.2 mph - 0.01 in   Overcast
10:42 AM 46.4 °F 41.1 °F 44.6 °F 93% 29.56 in 6.0 mi WSW 11.5 mph 18.4 mph 0.01 in Rain Light Rain
10:53 AM 46.0 °F 39.9 °F 44.1 °F 93% 29.57 in 10.0 mi West 13.8 mph 18.4 mph 0.01 in   Overcast
11:53 AM 48.0 °F - 44.1 °F 86% 29.57 in 10.0 mi West 10.4 mph 18.4 mph 0.00 in   Overcast
12:53 PM 48.9 °F - 44.1 °F 83% 29.58 in 10.0 mi WSW 13.8 mph 20.7 mph N/A   Overcast
1:53 PM 48.0 °F - 43.0 °F 83% 29.60 in 10.0 mi West 16.1 mph 24.2 mph 0.00 in   Overcast
2:46 PM 48.2 °F - 46.4 °F 93% 29.61 in 10.0 mi West 13.8 mph - 0.00 in Rain Light Rain
2:53 PM 48.9 °F - 46.0 °F 90% 29.62 in 10.0 mi West 16.1 mph 20.7 mph 0.01 in Rain Light Rain
3:00 PM 50.0 °F - 44.6 °F 82% 29.61 in 10.0 mi West 12.7 mph 20.7 mph 0.00 in   Mostly Cloudy
3:25 PM 50.0 °F - 44.6 °F 82% 29.62 in 10.0 mi West 11.5 mph 19.6 mph 0.00 in   Overcast
3:42 PM 50.0 °F - 44.6 °F 82% 29.63 in 10.0 mi West 17.3 mph 25.3 mph 0.00 in   Overcast
3:53 PM 50.0 °F - 44.1 °F 80% 29.63 in 10.0 mi West 9.2 mph 20.7 mph 0.00 in   Overcast
4:53 PM 50.0 °F - 44.1 °F 80% 29.65 in 10.0 mi West 11.5 mph 19.6 mph 0.00 in   Overcast
5:53 PM 50.0 °F - 43.0 °F 77% 29.67 in 10.0 mi West 10.4 mph 19.6 mph N/A   Overcast
6:53 PM 48.9 °F - 44.1 °F 83% 29.69 in 10.0 mi WSW 6.9 mph - N/A   Overcast
7:53 PM 48.9 °F - 45.0 °F 86% 29.71 in 10.0 mi WSW 12.7 mph - N/A   Overcast
8:53 PM 48.9 °F - 45.0 °F 86% 29.72 in 10.0 mi WSW 8.1 mph - N/A   Overcast
9:53 PM 48.9 °F - 45.0 °F 86% 29.72 in 10.0 mi SW 9.2 mph - N/A   Overcast
10:03 PM 48.2 °F - 46.4 °F 93% 29.72 in 10.0 mi WSW 9.2 mph - N/A   Overcast
10:24 PM 48.2 °F - 46.4 °F 93% 29.72 in 10.0 mi WSW 10.4 mph 16.1 mph N/A   Overcast
10:53 PM 48.9 °F - 46.0 °F 90% 29.73 in 10.0 mi West 10.4 mph 18.4 mph N/A   Overcast
11:06 PM 48.2 °F - 44.6 °F 87% 29.72 in 10.0 mi West 10.4 mph 18.4 mph N/A   Overcast
11:22 PM 48.2 °F - 44.6 °F 87% 29.72 in 10.0 mi West 10.4 mph 18.4 mph N/A   Overcast
11:33 PM 48.2 °F - 44.6 °F 87% 29.72 in 10.0 mi West 10.4 mph 21.9 mph N/A   Overcast
11:53 PM 48.9 °F - 45.0 °F 86% 29.73 in 10.0 mi WSW 10.4 mph - N/A   Overcast